Погода в Камоке

Пакистан     31°58′10″N   74°13′21″E
темп.,
°C
ветер,
м/с
пор.,
м/с
влажн.,
%
обл.,
%
осадки,
мм/ч
давл.,
гПа
погр.,
м
17 июня, чт
чт1723:00+30з1145100 2.1 1000328
02:00+30св234591 0.0 999379
05:00+29всв235081 0.0 999116
08:00+32в22380 0.0 1001728
11:00+37зсз222784 0.0 10002216
14:00+39сз23205 0.0 9973302
17:00+40сз33170 0.0 9953743
20:00+37сз472018 0.0 997282
18 июня, пт
пт1823:00+35зсз362198 0.0 998170
02:00+33ссз4728100 0.0 998257
05:00+32с483050 0.0 999263
08:00+35в332610 0.0 999644
11:00+41ссз121810 0.0 9993288
14:00+42ссз321446 0.0 9964255
17:00+41ссз441435 0.0 9952952
20:00+39юз221610 0.0 99641
19 июня, сб
сб1923:00+36в24253 0.0 998109
02:00+33ю13274 0.0 99870
05:00+32ююз363514 0.0 999159
08:00+36ююз23326 0.0 10001230
11:00+41зсз13210 0.0 9992177
14:00+43с341216 0.0 9964584
17:00+43юз451379 0.0 9943706
20:00+39юв131823 0.0 996321
20 июня, вс
вс2023:00+37вюв35228 0.0 997116
02:00+35ююв232869 0.0 99763
05:00+33вюв693339 0.1 998264
08:00+35вюв54391 0.0 10001028
11:00+39вюв32280 0.0 9992042
14:00+43всв231810 0.0 9954498
17:00+40зюз7718100 0.1 994986
20:00+37ссв4626100 0.6 996456
21 июня, пн
пн2123:00+34ссв61031100 1.6 999849
02:00+33сз113299 0.5 1000486
05:00+31св344540 0.5 1000284
08:00+34вюв343697 0.0 1001939
11:00+38ю112664 0.0 10012115
14:00+40з322290 0.0 9983203
17:00+41зсз32195 0.0 9963246
20:00+38зюз22229 0.1 99643